Location: Unspecified
(0.0000°N, 0.0000°E)
Time: 23:24:30
(UTC+00:00)

A-11 Canister half - Pass Details

Date: 09 February 2023
Orbit: 1526 x 1682 km, 47.3° (Epoch: 29 March)

Event Time Altitude Azimuth Distance (km) Brightness Sun altitude
Rises 13:11:47 0° 317° (NW) 4,779 11.6 69.6°
Reaches altitude 10° 13:14:50 10° 315° (NW) 3,816 11.2 69.0°
Maximum altitude 13:24:35 76° 231° (SW) 1,687 11.9 67.3°
Drops below altitude 10° 13:34:40 10° 146° (SE) 3,930 11.3 65.3°
Sets 13:37:53 0° 144° (SE) 4,928 11.7 64.7°
